Location: Unspecified
(64.9000°N, 0.0000°E)
Time: 10:10:46
(UTC+00:00)

Altair - Pass Details

Date: 20 June 2019
Orbit: 1501 x 1683 km, 47.2° (Epoch: 19 July)

Event Time Altitude Azimuth Distance (km) Brightness Sun altitude
Rises 19:22:40 0° 184° (S) 4,740 9.8 13.0°
Reaches altitude 10° 19:27:58 10° 160° (SSE) 3,801 9.2 12.5°
Maximum altitude 19:31:55 13° 135° (SE) 3,574 8.9 12.2°
Drops below altitude 10° 19:35:56 10° 111° (ESE) 3,866 9.0 11.8°
Sets 19:41:23 0° 87° (E) 4,892 9.6 11.3°
